Theta_e
312 312 315 319 321 322 328 328 329 334 328 322 327 328 321 322 329 329 329 330 331 330 328 331 330 330 335 337 336 337 336 339 341 337 340 339 338 339 339 337 333 330 329 327 326 324 322 321 321 326 331 331 330 330 332 334 334 332 330 332 334 333 332 331 331 332 333 333 335 333 332 333 333 334 334 333 332 332 332 332 333 332 332 332 332 331 331 331 331 331 331 331 331 331 331 331 332
312 313 318 322 322 322 332 331 326 331 326 322 326 325 320 321 326 327 328 329 330 328 328 330 330 330 333 336 335 341 340 337 339 339 339 338 339 339 338 336 332 330 329 326 326 324 322 320 321 326 330 331 330 330 332 334 334 332 331 333 334 332 332 331 331 332 332 333 334 335 334 335 334 334 334 333 332 332 333 333 332 332 333 333 333 332 331 331 331 331 330 330 331 331 331 332 332
313 314 321 325 326 324 331 330 325 324 320 322 325 323 320 320 324 326 327 329 330 329 330 330 331 330 332 339 338 343 342 335 337 337 337 339 339 339 338 335 332 330 329 327 326 325 322 319 322 326 329 331 331 331 333 334 334 333 331 333 334 333 333 332 332 332 332 332 333 334 334 334 333 332 333 332 331 332 332 332 331 332 333 332 333 332 331 330 331 330 330 330 330 331 331 331 331
313 317 324 325 330 330 327 328 329 322 317 324 322 320 322 322 326 327 328 330 332 331 330 330 330 327 333 343 339 340 340 336 337 336 338 339 339 339 338 335 331 330 329 327 326 326 323 320 319 322 328 331 332 332 332 333 334 333 331 332 334 333 333 333 332 332 332 332 331 332 333 333 332 332 332 331 331 332 332 332 331 332 332 332 332 332 331 330 330 329 330 330 330 330 330 330 330
316 320 323 324 333 334 325 326 330 322 321 328 320 322 326 324 327 327 330 331 333 332 329 329 327 324 333 339 337 340 339 337 336 336 337 338 340 339 338 336 333 334 332 328 327 327 324 321 318 318 325 330 331 331 332 333 334 332 331 332 333 333 333 333 332 331 331 330 330 331 332 332 332 331 331 331 332 333 332 332 330 330 332 332 332 332 332 330 330 330 330 330 330 330 329 329 329
320 321 322 323 329 329 325 324 325 324 328 329 319 325 328 325 327 328 330 330 331 332 330 329 326 329 336 336 336 338 337 336 336 335 337 338 340 339 338 337 336 337 335 330 327 327 325 322 319 317 322 327 330 330 332 333 333 332 331 332 333 334 333 333 332 331 330 330 329 330 332 331 329 328 329 331 331 332 332 331 330 331 332 332 332 332 331 330 330 330 330 330 330 329 328 329 328
321 324 327 326 326 325 327 325 325 327 325 323 322 327 327 326 327 328 330 328 328 330 330 329 329 334 336 336 339 338 335 335 336 335 337 338 339 339 338 338 338 338 337 331 327 327 325 323 320 317 319 325 329 330 331 332 333 332 332 332 332 334 333 333 332 331 330 329 329 329 331 330 328 328 328 329 329 330 330 330 331 332 332 332 332 331 331 330 330 330 330 329 329 328 327 328 328
321 327 332 331 330 326 327 325 327 328 320 319 324 327 326 326 326 328 329 328 327 328 330 328 328 333 331 336 342 339 336 335 336 336 337 338 339 339 338 339 338 338 338 332 327 327 326 324 322 318 318 324 329 330 330 331 333 332 331 332 332 333 334 333 332 330 329 329 328 328 330 330 329 330 328 327 328 329 330 329 330 331 331 331 331 331 330 330 329 329 329 328 327 327 327 327 327
320 327 331 329 332 326 324 325 327 327 319 322 325 325 326 325 325 326 326 327 326 327 330 327 328 331 332 338 340 337 337 336 336 336 336 338 338 338 339 339 338 339 337 332 328 328 327 325 323 320 318 320 326 329 329 329 331 332 330 331 332 333 333 333 332 330 328 328 328 328 329 330 329 329 329 329 330 330 330 330 329 330 330 331 331 330 330 330 329 329 328 327 327 326 326 326 327
322 326 328 327 329 325 322 324 326 326 318 321 325 325 325 324 324 325 325 325 325 327 328 327 331 334 335 340 340 338 337 336 336 336 336 337 337 338 339 338 338 339 336 331 329 329 328 327 325 323 319 318 322 325 326 328 331 332 330 331 332 332 332 332 331 329 327 326 327 328 328 329 330 329 329 330 330 330 330 331 330 330 330 330 330 330 330 329 329 328 328 327 326 326 325 325 326
326 325 327 325 323 321 324 326 324 324 318 319 323 323 323 323 324 324 324 323 324 327 325 326 331 335 337 340 340 337 336 335 336 336 335 336 336 337 338 338 338 338 336 332 329 330 329 328 327 325 322 319 319 319 321 324 329 331 330 330 331 331 331 331 330 328 327 325 326 327 327 328 329 330 329 329 329 329 330 330 330 330 329 329 330 330 329 329 329 328 327 326 326 325 325 325 325
333 329 328 326 325 324 327 327 323 321 318 319 320 321 322 322 322 322 322 322 324 326 325 324 327 335 340 341 339 335 336 336 336 335 335 336 335 337 337 338 338 338 337 333 330 330 330 329 328 327 324 322 319 318 317 319 325 328 329 330 330 331 331 331 330 328 327 326 325 325 325 326 327 328 328 328 327 328 329 329 329 329 329 329 329 329 328 328 328 328 327 325 325 326 325 325 324
335 332 325 327 333 331 327 324 324 321 318 321 320 320 322 322 322 321 322 324 326 326 327 325 324 335 340 339 338 335 336 335 336 335 335 335 335 337 337 338 338 338 338 334 331 330 331 330 330 328 326 325 322 319 318 317 319 322 325 328 329 330 331 330 330 328 327 326 325 324 324 325 325 325 327 326 326 326 328 328 328 329 329 329 328 328 327 327 327 327 326 325 326 325 325 324 323
331 332 325 328 333 327 325 321 321 321 319 323 320 320 323 323 323 319 322 326 326 325 325 323 325 339 341 337 339 336 336 335 336 335 334 335 335 337 338 338 338 338 338 336 333 330 331 331 330 330 327 326 325 322 319 318 318 318 320 323 325 328 329 329 329 328 327 327 326 324 323 324 325 325 325 325 325 325 326 326 326 327 328 328 327 327 327 327 327 327 326 326 326 325 324 323 323
326 334 329 328 328 322 327 325 321 323 321 322 320 321 323 321 321 319 322 324 323 321 320 319 321 333 339 339 342 336 335 336 335 335 335 335 335 337 338 338 338 338 339 338 335 331 331 331 331 331 330 328 326 325 321 319 318 318 319 320 321 322 324 326 326 326 326 326 326 325 322 324 325 325 325 325 324 324 325 324 325 326 327 327 327 327 327 327 327 326 326 326 326 325 324 323 322
327 335 329 325 328 325 329 328 324 324 321 321 319 322 322 319 320 319 318 321 321 321 323 322 319 327 335 340 340 334 335 336 335 334 335 335 335 337 337 338 338 339 339 338 337 333 332 332 331 331 331 329 328 327 324 321 319 319 319 320 320 320 320 322 323 324 325 324 324 322 321 323 324 325 325 325 324 323 324 324 324 326 327 326 327 326 326 326 326 325 325 326 326 325 324 322 322
327 332 329 325 330 328 329 328 323 324 322 320 319 322 323 319 318 317 316 320 322 324 329 326 324 334 338 336 334 333 336 335 334 335 335 335 334 336 337 338 338 339 339 339 338 335 334 333 332 332 332 331 329 328 326 324 321 320 320 320 320 320 320 320 321 322 321 320 319 318 319 322 323 324 324 324 324 323 323 323 323 324 325 326 326 326 326 326 325 324 325 326 325 325 324 322 321
325 331 329 325 331 329 327 326 323 325 323 320 320 321 322 320 318 316 317 319 321 326 328 328 333 336 335 333 334 335 336 335 335 335 335 334 334 335 337 338 338 339 339 339 339 337 336 335 335 333 332 333 331 329 328 326 324 322 321 320 320 320 320 320 320 319 318 319 320 320 320 321 323 323 323 323 323 323 321 322 322 322 323 323 323 324 324 324 324 323 324 325 325 324 324 323 322
326 331 327 329 334 327 320 318 319 323 321 319 320 321 321 320 317 317 318 319 322 326 324 330 340 338 335 334 335 336 335 335 335 334 335 334 334 334 335 337 338 338 338 339 339 339 338 337 337 335 334 334 333 332 329 327 326 324 322 322 320 320 320 319 318 317 319 323 324 324 324 323 323 323 322 322 322 322 321 321 322 322 322 322 321 322 322 323 322 322 323 325 325 324 324 323 322
325 326 325 333 329 319 317 315 317 320 320 319 320 319 321 319 317 317 319 319 321 325 324 332 341 340 338 335 334 336 335 335 334 334 335 333 334 334 334 336 337 338 337 338 338 338 338 338 338 336 335 335 335 334 332 329 327 326 325 324 322 322 320 319 318 316 320 325 325 325 325 325 324 324 322 321 321 320 320 320 321 322 322 321 321 320 321 321 320 321 322 324 325 324 324 323 322
322 321 326 330 320 316 317 315 316 318 319 319 320 320 320 319 317 317 318 319 319 320 322 329 338 339 338 336 334 335 335 334 334 334 334 333 334 334 334 335 337 337 336 337 338 338 338 338 338 337 337 337 335 336 335 331 329 328 327 326 325 324 323 323 322 320 322 325 326 325 325 324 325 325 322 320 322 319 318 320 320 320 320 320 321 320 319 319 319 320 321 323 324 323 323 322 322
319 319 323 322 317 318 315 315 316 316 318 320 320 320 319 317 317 317 318 320 320 318 318 323 334 338 337 336 334 334 334 334 334 334 334 333 333 334 334 334 335 336 336 337 337 337 337 338 338 338 338 337 337 336 335 333 331 330 329 328 327 326 326 326 327 325 325 326 326 325 324 324 323 324 322 321 322 320 317 318 318 318 318 317 319 320 318 317 318 319 321 323 323 323 323 323 322
318 320 320 317 317 318 315 316 316 316 319 320 320 319 317 317 317 317 317 319 319 318 318 320 331 336 335 335 334 335 334 333 334 334 334 333 333 333 334 334 334 336 336 336 336 337 337 337 338 338 338 338 338 336 336 335 333 332 332 330 328 327 327 327 328 327 326 326 326 325 325 325 321 319 321 321 322 322 319 318 319 319 318 316 318 319 318 317 318 320 322 322 321 322 323 323 323
317 318 319 316 316 316 315 316 315 317 319 318 320 318 317 319 319 317 317 318 318 321 317 316 328 335 335 335 334 334 334 334 334 334 334 334 333 333 334 334 334 335 335 335 336 337 336 337 337 337 338 338 338 337 336 335 334 333 333 331 330 329 329 328 328 328 327 326 326 326 326 325 320 316 317 320 322 323 321 321 322 322 321 318 319 320 319 318 318 320 321 321 320 321 322 323 323
317 318 318 316 315 315 314 315 315 316 317 317 319 318 318 319 318 317 318 318 318 323 320 317 328 334 334 335 334 333 333 334 334 334 334 334 334 334 334 334 334 334 335 335 336 336 337 337 336 336 337 338 338 337 337 335 334 334 333 332 331 330 329 328 328 329 328 327 326 327 326 323 322 319 317 320 324 324 322 322 323 322 321 320 320 320 319 318 317 318 319 319 320 320 321 322 322
316 316 318 316 314 313 313 314 314 315 315 317 319 318 316 315 316 317 318 318 319 323 325 323 329 335 336 335 334 332 332 333 333 333 334 334 334 333 334 334 334 334 334 335 335 336 336 337 337 336 336 337 337 337 337 336 335 335 334 333 331 331 330 328 329 329 329 328 327 327 327 323 323 323 320 322 325 324 323 322 323 322 322 321 320 320 319 317 315 316 317 318 319 320 320 320 321
314 314 317 316 314 313 313 314 314 315 315 316 319 316 315 314 314 317 317 319 321 324 327 326 329 334 336 335 333 332 331 333 333 333 334 334 334 334 334 334 334 334 334 335 335 334 335 336 337 336 336 336 337 337 337 336 336 335 335 334 332 331 331 329 329 329 329 329 328 327 327 325 324 324 323 322 323 324 323 323 322 322 322 321 320 320 318 315 314 315 317 318 318 319 319 319 320
315 315 315 314 314 313 314 314 314 314 314 315 317 315 314 315 315 317 317 318 321 324 325 326 328 330 332 334 333 331 331 332 333 333 333 334 334 334 334 334 334 334 334 334 334 334 335 336 336 335 335 336 336 336 336 336 336 335 335 334 333 331 331 330 329 329 329 328 328 327 327 326 325 324 324 324 323 322 322 323 323 322 321 320 318 317 315 314 313 314 317 318 318 318 319 320 320
316 316 315 314 313 314 314 314 314 314 314 315 315 314 314 315 315 317 319 318 320 323 324 325 326 327 330 332 332 331 331 332 333 333 334 334 334 335 334 335 335 334 334 334 334 334 335 335 335 335 334 335 335 335 336 336 336 336 335 334 334 332 331 330 329 329 329 328 328 328 328 327 326 325 325 324 324 322 321 322 322 321 320 318 316 316 315 315 315 314 317 319 319 319 319 320 320
315 315 315 315 313 315 316 314 314 314 314 315 314 314 317 317 315 316 318 317 319 321 323 323 323 324 327 330 331 331 329 330 332 332 334 335 335 335 335 335 335 335 335 334 335 335 335 335 335 335 334 334 334 334 336 336 336 336 335 335 334 333 332 331 330 329 329 329 328 328 328 328 327 325 325 325 324 324 323 322 322 321 319 317 316 316 316 316 316 315 317 319 319 319 319 319 319
314 313 315 318 317 319 318 313 314 315 314 315 313 314 319 319 316 314 315 316 317 319 320 321 320 321 323 326 328 330 329 328 332 333 333 334 335 335 335 335 335 335 335 335 335 335 334 335 335 335 334 334 334 334 335 335 336 335 335 335 334 334 333 331 331 330 330 330 329 329 329 329 328 326 325 325 325 324 324 323 323 322 320 318 317 317 317 317 316 315 315 317 318 318 318 318 318
313 314 316 318 318 321 318 312 315 316 314 313 313 315 318 319 317 314 313 315 316 317 317 318 318 319 322 325 326 328 328 326 329 332 332 334 334 335 335 335 335 335 335 335 335 334 334 334 335 335 334 334 334 334 334 335 335 335 335 335 335 334 333 332 332 331 330 330 330 329 329 329 328 328 327 326 325 325 325 325 325 324 321 320 319 318 318 318 317 316 314 314 315 316 317 317 318
313 315 319 320 317 319 317 313 315 315 315 313 312 316 318 317 315 312 312 314 316 316 316 317 317 317 320 324 326 328 329 328 329 329 331 333 333 334 335 335 335 335 335 335 335 335 334 334 334 335 335 334 334 333 333 335 335 335 335 335 335 334 334 333 332 331 331 330 330 329 329 329 328 329 328 327 326 325 325 326 326 324 323 322 321 320 319 319 318 317 315 313 314 315 315 316 317
315 313 318 322 317 317 317 315 315 314 314 313 312 314 317 316 313 313 313 313 315 315 315 316 317 316 318 323 327 328 330 331 330 328 329 332 333 334 334 335 335 335 335 335 335 335 334 334 334 334 334 334 334 333 333 334 335 335 335 335 335 335 334 333 333 332 331 331 331 329 329 329 329 329 329 328 327 326 325 325 325 325 324 323 322 321 320 319 319 318 317 315 315 315 315 316 316
320 315 314 318 316 315 317 317 316 315 314 314 313 313 316 316 313 313 314 313 314 315 314 315 316 317 317 321 326 327 328 330 328 327 329 331 332 333 334 334 335 335 335 335 334 335 334 334 334 334 334 334 334 334 333 333 333 334 335 335 335 335 335 334 333 332 332 331 331 330 330 329 330 330 329 328 327 326 326 325 326 325 324 323 322 321 321 320 320 319 318 317 316 316 316 316 316
321 317 314 315 316 314 317 317 315 314 314 315 315 313 315 315 313 314 314 313 313 314 314 313 314 316 316 318 323 325 326 326 324 326 330 331 331 333 333 334 335 335 335 335 334 334 335 334 334 334 333 334 334 334 334 333 333 334 334 334 334 335 335 334 334 333 332 332 331 331 330 330 330 330 330 329 328 327 326 326 326 325 324 323 322 322 322 322 322 321 320 318 317 316 316 316 316
315 316 314 315 317 315 316 316 315 315 314 315 315 314 314 314 313 314 314 314 314 314 314 313 313 314 315 317 319 322 324 322 320 324 328 330 331 332 333 334 334 335 335 335 335 334 335 335 334 334 333 333 334 334 334 334 333 333 333 334 334 334 334 334 334 334 333 332 332 331 331 331 330 330 330 330 329 328 327 327 326 326 325 324 323 324 324 323 322 321 320 319 318 317 316 316 315
313 317 317 315 316 316 315 314 314 314 314 316 316 315 314 315 315 314 314 314 314 314 313 313 313 313 314 315 317 319 319 318 318 322 325 327 330 331 331 333 332 332 333 334 335 334 334 335 334 334 334 333 333 333 334 334 334 333 332 332 333 333 334 334 334 334 334 333 333 332 332 331 331 331 331 331 329 328 328 327 326 326 326 325 324 324 324 323 321 321 320 319 319 318 317 316 315
314 317 317 316 318 316 315 315 315 314 314 317 318 316 316 317 315 313 314 315 314 313 313 313 313 313 313 314 315 317 317 318 319 321 322 324 327 329 330 331 331 330 332 333 333 334 333 334 334 334 334 333 333 332 332 333 333 333 331 331 332 333 333 333 333 333 333 333 333 332 332 331 331 331 331 331 329 328 328 328 327 326 326 326 325 324 323 322 321 321 320 320 320 318 317 316 315
315 319 315 317 319 316 316 316 314 313 313 316 317 316 317 316 315 316 316 316 315 313 313 313 313 314 314 314 315 316 317 318 320 320 320 321 324 327 328 329 331 330 330 331 332 332 332 333 334 334 334 333 333 332 331 332 332 333 331 330 331 332 332 332 332 333 333 333 332 332 331 331 331 331 331 330 329 328 328 328 328 327 326 326 326 325 324 323 322 322 321 320 320 319 318 317 316
317 322 318 318 319 318 319 317 314 314 314 316 314 315 319 317 315 317 316 316 314 313 314 312 313 315 314 315 315 316 318 317 319 320 319 319 321 324 327 328 329 330 330 330 331 331 331 332 332 333 333 333 333 332 332 332 332 332 331 330 330 331 331 331 332 333 333 333 332 331 331 330 330 330 330 330 330 329 327 328 329 328 328 327 326 326 325 325 324 323 322 320 320 320 320 318 317
315 320 320 320 322 323 320 317 316 315 315 317 313 314 324 325 318 316 314 314 313 313 315 313 313 315 314 315 315 316 317 316 318 318 317 317 320 323 325 326 327 328 329 329 330 331 331 332 332 332 333 333 333 332 332 332 332 332 331 330 330 330 330 331 331 332 332 332 332 331 331 331 330 329 329 330 330 328 326 329 330 329 329 327 327 326 326 326 325 324 322 321 321 321 320 318 316
312 318 322 320 325 327 323 319 317 316 316 316 314 315 321 323 322 322 317 315 315 312 314 315 312 313 314 314 314 314 315 316 317 318 316 315 318 321 322 324 325 326 327 328 329 330 331 331 332 332 332 332 332 331 331 331 331 331 331 330 330 330 329 330 330 330 330 330 331 331 331 330 329 328 328 329 329 327 327 329 330 329 329 327 327 327 326 326 326 325 324 323 321 320 319 317 316
315 322 327 323 323 327 328 323 318 320 319 318 321 319 316 319 322 324 319 316 317 314 312 314 313 312 313 313 313 314 315 316 316 318 318 314 315 319 321 323 324 324 325 325 327 328 330 331 331 331 331 331 331 331 330 330 329 329 330 330 330 330 329 328 329 329 329 329 330 330 330 329 328 327 327 327 327 327 327 328 328 328 328 327 326 327 327 326 325 325 323 322 321 320 319 318 317
319 324 327 325 325 330 332 327 321 320 317 320 326 319 315 324 328 326 321 315 319 321 317 316 314 314 314 313 313 315 316 317 317 318 318 313 312 316 319 321 323 323 324 324 325 326 327 329 330 330 330 330 330 330 330 329 329 329 329 329 330 329 329 328 328 328 328 329 329 329 329 329 328 327 326 324 325 326 327 327 328 329 328 327 326 327 326 326 324 323 321 321 321 320 320 319 318
320 324 325 327 330 330 328 328 325 319 316 325 331 320 314 324 330 326 318 314 318 322 321 318 316 316 316 315 316 316 317 318 319 319 315 312 312 314 316 318 320 322 323 323 323 324 325 326 327 328 328 329 329 330 329 329 329 329 329 329 329 329 329 328 328 327 327 328 329 329 329 328 328 327 327 325 324 326 327 327 327 326 326 325 326 326 326 325 324 322 320 320 321 320 320 319 318
321 324 325 324 327 330 330 332 328 317 320 333 335 324 314 317 329 326 317 318 320 317 318 317 316 317 316 316 316 315 316 316 319 319 314 310 311 313 313 314 315 318 319 321 322 323 324 325 325 326 326 327 328 328 329 329 328 329 329 329 328 328 328 328 327 326 326 327 327 328 328 328 328 327 326 325 325 325 324 323 323 324 324 324 325 326 326 325 323 322 321 322 321 320 319 318 318
322 326 325 319 322 332 334 330 323 318 325 332 326 322 317 316 327 327 319 322 320 315 318 317 317 321 321 318 317 317 318 318 318 322 319 315 314 312 312 312 313 314 315 317 319 321 322 324 324 325 325 326 327 327 327 328 327 328 328 328 328 327 327 327 327 326 326 326 326 326 327 327 328 327 325 324 324 323 322 322 322 323 324 325 325 325 325 324 323 323 322 321 320 319 319 318 316
321 323 319 316 319 324 324 323 321 321 325 322 315 317 319 319 321 321 319 320 317 315 316 316 319 326 328 324 322 323 326 327 326 326 327 327 320 311 310 311 312 312 313 313 315 317 319 322 323 324 325 325 326 326 327 327 326 327 326 327 327 327 327 326 326 326 325 325 325 325 326 327 326 326 324 322 322 323 323 322 321 322 322 323 323 322 322 321 321 322 320 319 318 318 317 316 315
317 317 317 321 323 316 315 321 320 320 322 318 312 315 320 320 319 318 317 315 316 314 313 318 323 327 332 328 325 327 328 330 333 332 332 332 320 310 309 311 311 312 312 313 313 313 315 319 321 323 323 324 325 326 326 326 326 326 326 326 326 326 326 325 325 325 324 324 324 324 324 325 325 324 323 322 321 322 323 323 322 321 321 320 320 319 318 318 318 318 318 317 317 316 315 313 312
318 319 320 323 325 321 321 324 322 322 323 317 312 316 321 319 317 320 318 314 316 314 316 325 327 328 333 329 326 328 327 328 331 331 333 328 315 310 311 311 310 311 311 312 313 313 314 316 319 321 323 324 325 325 326 325 325 325 325 325 325 325 325 325 325 324 323 323 322 323 323 323 323 323 323 322 321 321 321 322 322 322 321 320 319 319 318 318 318 317 317 316 315 314 312 310 309
318 320 321 321 324 330 331 327 326 326 323 317 315 320 326 320 316 318 317 315 316 315 317 322 321 322 325 324 324 326 326 329 329 329 332 325 312 310 313 311 311 311 310 311 312 312 313 314 316 318 320 322 323 324 325 325 325 324 324 324 324 324 324 323 323 322 321 321 321 323 323 324 323 323 323 322 322 322 322 322 322 322 322 320 320 319 319 319 318 318 317 316 315 313 312 310 309
317 317 322 324 325 333 330 320 318 318 318 320 318 319 325 320 316 319 317 315 315 315 317 317 317 319 320 321 324 323 324 327 327 327 330 324 313 312 314 312 312 311 310 311 310 311 312 312 314 315 317 320 322 324 324 324 324 324 323 323 323 322 322 322 321 321 320 320 320 323 324 324 325 324 323 323 322 323 323 323 323 322 321 320 320 320 319 319 318 317 316 315 314 313 312 311 310
318 318 320 320 319 326 326 318 317 315 316 320 316 317 324 320 318 322 319 316 316 315 317 316 317 320 320 322 324 324 327 326 326 327 326 321 313 313 315 314 314 313 311 312 310 310 311 311 312 314 315 318 320 321 323 322 323 323 322 322 322 321 321 321 320 320 320 320 320 322 324 324 324 324 323 323 323 323 323 322 322 321 321 320 320 319 319 318 317 316 315 314 313 312 312 311 310
317 319 318 319 318 318 320 318 320 319 316 320 320 319 322 319 321 323 315 315 320 318 316 315 316 319 320 322 324 326 329 330 331 332 332 325 313 312 316 316 315 315 313 313 312 311 312 312 313 313 314 316 317 319 321 321 321 321 321 321 320 320 320 319 320 320 320 321 322 322 323 324 324 323 323 323 323 323 322 322 321 320 320 320 319 318 318 317 316 315 314 314 313 312 311 310 309
314 315 313 317 320 318 319 320 323 322 317 320 322 318 322 326 326 321 313 314 320 319 318 319 318 319 321 323 324 327 331 334 335 334 336 330 314 311 316 316 316 316 315 314 313 313 314 314 314 314 314 315 316 318 319 320 320 319 319 319 318 318 318 319 320 321 321 322 323 323 323 323 323 323 322 322 322 322 322 321 321 320 319 318 318 317 316 315 314 314 314 313 312 311 310 310 309
314 315 313 314 316 317 320 320 323 323 319 320 318 318 331 338 326 319 316 314 316 320 324 327 327 325 324 325 326 329 332 336 335 330 330 326 313 311 316 316 316 317 316 315 315 315 315 315 315 315 316 316 316 317 318 319 319 318 318 318 317 317 317 319 321 321 322 323 323 324 323 323 322 322 322 322 321 321 320 320 319 318 317 317 316 315 314 313 313 313 312 312 312 311 310 310 309
315 315 314 314 315 317 318 318 321 322 320 320 318 318 332 338 325 320 319 316 319 322 325 330 331 327 326 326 326 329 332 333 330 326 328 322 312 311 314 314 315 316 316 316 316 316 316 316 317 316 317 317 317 317 318 318 318 318 318 317 317 318 318 320 321 322 322 322 322 323 322 322 322 321 321 321 320 320 319 319 318 317 316 315 314 313 312 312 312 311 311 311 311 310 310 310 309
Wind_Speed
8 8 6 4 6 9 7 2 2 3 2 1 3 1 2 1 4 5 5 4 3 3 2 3 5 6 5 8 10 9 6 1 2 3 2 6 20 25 20 22 22 19 19 16 14 13 12 12 13 16 16 16 16 16 15 13 14 16 19 19 18 18 18 19 19 18 18 18 17 17 17 18 19 20 21 21 22 22 21 22 22 22 22 22 22 22 22 22 22 22 21 22 22 23 25 26 25
8 7 4 4 5 4 3 2 3 3 4 2 4 3 4 1 5 6 6 4 4 2 3 6 8 9 10 12 9 7 7 6 2 3 6 19 25 23 24 23 22 20 18 16 14 13 13 13 15 16 16 15 16 17 16 14 15 17 19 19 17 18 18 18 18 18 18 18 18 18 18 19 19 20 21 20 21 21 21 21 21 22 21 20 21 22 22 22 21 22 22 22 22 23 26 26 25
7 5 4 6 4 1 1 2 2 1 3 2 5 2 3 5 6 6 6 6 6 5 6 6 8 6 7 8 5 5 3 4 6 6 9 24 22 21 26 22 21 19 18 17 14 14 13 13 14 16 17 17 17 17 16 13 15 17 18 19 18 17 17 17 17 18 18 18 18 18 18 18 19 20 20 19 19 19 21 21 21 21 20 20 20 20 20 20 20 21 21 21 23 25 26 25 24
6 3 5 6 3 2 3 2 2 3 1 3 3 4 2 7 8 7 6 6 6 6 5 4 5 2 5 9 4 5 5 2 5 6 8 19 21 25 26 20 21 19 17 16 14 14 13 13 13 16 18 17 16 16 16 14 14 15 16 19 18 16 16 17 17 17 17 17 18 17 17 17 18 19 19 18 18 18 20 21 20 20 19 19 19 19 20 20 20 20 20 21 23 24 25 24 24
4 2 3 3 2 1 2 1 1 3 3 4 2 2 4 8 10 9 5 5 6 6 4 3 3 1 6 6 2 3 5 5 5 7 11 20 27 28 23 21 21 18 17 15 15 15 13 13 13 16 18 17 16 15 15 14 13 13 16 19 19 17 16 16 16 16 17 17 17 16 16 17 17 18 19 19 18 18 19 20 20 19 19 18 18 18 19 19 19 19 19 20 22 23 24 24 24
4 3 1 1 1 1 2 1 2 1 5 5 5 4 6 7 10 10 6 5 5 5 4 4 5 4 5 2 3 4 6 7 7 10 18 26 29 26 23 22 20 18 16 15 15 15 14 13 12 15 16 17 17 16 15 14 13 13 16 18 18 18 17 16 16 16 17 17 16 16 15 15 16 17 17 17 17 17 17 18 19 18 17 18 18 18 18 18 18 18 18 19 20 22 24 24 24
5 4 2 2 1 1 3 2 2 3 5 3 7 7 7 7 9 11 8 5 5 4 4 4 7 7 3 2 4 2 6 10 11 16 24 29 29 26 25 24 22 20 16 16 16 15 15 13 13 14 15 17 17 16 15 15 13 13 15 16 17 19 17 15 16 16 17 17 16 16 15 14 15 16 16 16 16 17 17 18 18 17 17 17 17 17 18 17 17 17 17 19 21 22 23 23 23
3 2 1 3 1 2 2 2 3 3 3 1 7 9 10 9 9 10 8 5 2 1 3 3 8 7 2 3 3 3 7 15 17 25 28 29 30 27 26 25 24 21 17 17 16 15 15 13 13 13 15 16 15 15 15 16 14 13 14 16 16 18 17 15 15 16 17 17 16 16 15 14 15 16 15 15 16 16 16 16 16 16 16 16 16 16 16 16 16 16 17 20 21 21 22 21 21
0 1 1 3 1 1 1 2 3 3 2 2 6 7 10 9 8 10 8 5 4 4 3 4 7 6 2 6 4 2 10 19 24 29 30 29 29 26 26 26 24 22 18 18 17 16 15 13 13 13 14 14 14 15 15 16 15 13 14 15 15 16 17 15 15 15 16 17 17 16 15 14 14 15 15 16 16 16 16 15 15 15 15 15 16 15 15 15 16 15 16 18 19 19 19 18 20
1 1 1 1 1 1 3 2 2 3 2 3 6 8 9 7 8 9 9 7 6 5 5 4 8 7 5 5 3 1 11 24 28 28 28 29 27 26 27 25 23 22 19 19 17 16 16 14 13 13 13 13 14 14 13 15 16 14 13 15 15 15 16 15 14 14 15 16 16 16 15 14 14 14 15 15 16 15 15 15 15 14 14 14 14 14 15 15 15 14 15 17 17 17 17 18 19
2 1 2 1 1 2 4 3 3 3 2 3 5 7 8 8 8 7 9 7 5 6 4 4 7 7 7 4 1 6 17 25 28 28 29 27 24 26 27 24 21 19 19 19 17 16 16 15 14 13 13 13 12 12 12 15 16 14 13 14 15 15 14 13 13 13 14 15 15 14 14 14 14 14 14 14 15 14 14 14 14 14 14 13 14 13 14 14 14 14 14 16 17 17 17 17 17
2 2 4 2 2 4 4 3 5 4 3 1 5 5 6 8 8 7 9 7 6 7 4 4 7 6 6 2 1 11 20 22 26 30 30 25 22 25 25 22 20 17 17 18 18 17 16 15 14 13 13 13 12 11 11 14 15 15 14 13 14 14 13 12 12 13 13 13 13 12 13 13 12 12 13 13 13 14 14 14 13 13 13 13 13 13 13 13 13 12 14 17 17 17 17 16 16
2 2 4 2 3 4 3 2 4 4 2 3 5 4 5 7 7 9 9 8 8 8 4 5 7 6 5 2 3 10 16 20 26 30 29 23 21 25 23 21 19 17 16 17 18 17 16 15 15 14 13 13 12 12 11 12 14 14 14 14 14 14 13 12 11 12 11 11 11 11 11 12 11 11 11 11 11 12 13 14 13 12 12 13 12 12 12 12 12 11 13 17 17 17 16 15 16
1 2 4 2 2 2 2 1 3 5 3 5 4 2 3 3 5 9 10 9 7 6 5 4 7 7 3 2 3 5 12 22 27 29 28 21 21 25 22 20 19 17 15 15 16 17 17 15 14 14 13 13 12 12 12 12 12 13 13 13 14 14 13 11 11 11 10 10 10 10 11 11 10 10 10 9 9 10 11 12 13 12 12 12 12 12 12 11 11 10 13 16 17 17 15 15 15
2 1 4 2 2 2 2 3 5 5 4 5 4 3 4 2 2 7 9 9 4 4 3 5 4 4 5 7 5 7 17 28 28 29 27 19 21 25 22 20 18 16 16 14 15 17 17 16 15 15 14 14 13 13 12 12 12 12 13 13 12 12 12 11 11 11 10 9 9 9 10 11 11 10 9 8 8 8 9 10 11 12 12 12 12 12 12 11 10 10 12 15 15 15 14 13 13
2 3 3 0 3 3 3 4 5 4 3 4 4 4 6 4 3 4 2 7 4 1 4 3 1 3 7 8 9 17 26 32 30 29 25 18 21 25 22 21 19 17 16 14 15 16 16 16 16 15 15 14 14 14 13 13 12 12 13 12 11 11 11 11 11 11 10 9 9 9 10 11 11 9 9 7 7 7 8 9 10 12 12 12 12 11 11 10 9 9 11 13 13 13 13 12 12
3 4 2 1 3 3 4 4 5 5 3 4 4 5 8 2 3 1 2 6 7 3 5 3 3 5 3 6 17 28 31 33 31 27 23 18 22 25 23 22 21 19 18 16 15 16 16 16 16 16 15 14 15 14 14 14 13 13 13 13 12 11 10 10 10 10 10 9 9 9 10 11 10 9 8 7 6 6 6 7 8 9 10 11 11 11 11 10 9 9 11 12 11 11 11 11 11
3 3 2 2 3 3 4 5 6 6 6 7 7 6 9 5 2 2 3 8 7 6 6 4 6 8 7 16 28 33 32 33 31 27 23 19 21 24 23 24 23 22 21 19 18 17 17 16 15 15 15 14 15 14 15 15 15 14 14 13 12 11 10 10 9 9 10 11 11 11 10 10 10 8 7 6 6 5 5 6 6 7 7 8 8 9 9 8 8 9 10 11 10 9 10 11 11
2 3 2 4 4 4 3 2 4 5 7 9 7 5 7 7 5 4 4 5 6 7 4 4 8 8 11 21 29 31 32 32 29 27 23 19 21 23 22 24 25 23 22 21 21 20 18 16 15 16 15 14 15 15 15 15 15 15 14 14 13 12 11 11 10 10 11 12 12 11 10 8 8 8 6 6 5 5 5 5 6 5 5 5 5 5 5 5 6 6 8 10 10 9 9 9 10
2 3 2 5 4 3 4 4 4 4 9 10 7 5 6 6 4 4 6 7 6 7 4 4 9 8 10 15 23 28 28 28 28 26 22 20 21 23 23 24 25 25 24 22 22 22 21 18 16 16 16 16 16 14 15 15 16 15 14 14 13 13 12 11 11 11 12 12 11 9 9 7 6 6 5 5 5 5 5 5 5 5 5 4 4 4 4 4 4 5 7 9 10 9 8 8 8
1 3 4 5 2 2 4 5 6 2 10 11 8 6 5 5 3 4 8 8 4 6 8 8 11 13 12 12 18 24 24 24 25 23 21 21 20 21 22 23 24 25 24 23 22 22 21 19 17 18 18 19 18 15 15 15 16 15 14 14 13 13 12 12 11 12 13 12 10 9 10 7 6 6 5 6 5 4 5 5 5 4 4 4 4 3 3 4 4 6 8 10 10 8 7 7 6
1 3 6 5 1 1 5 4 5 2 7 9 9 7 5 4 3 5 10 8 6 6 9 11 14 15 16 15 17 20 21 21 22 22 21 21 21 21 21 22 23 23 24 25 24 22 21 20 18 19 21 22 20 17 15 15 16 15 14 14 13 13 12 11 10 11 13 12 9 10 11 9 8 8 7 7 5 3 3 5 5 4 3 4 5 3 3 3 4 6 9 11 10 7 7 6 4
2 5 5 4 1 3 3 3 5 2 7 8 8 7 5 6 3 5 8 6 6 6 8 12 16 19 22 21 19 17 17 19 22 23 23 23 23 23 23 23 23 24 25 25 25 24 22 21 20 20 23 23 20 18 16 16 17 15 13 13 13 13 12 11 10 9 11 12 10 11 12 10 9 10 9 9 7 4 2 4 5 4 3 2 5 5 4 3 4 7 10 10 8 7 7 5 5
5 5 4 3 1 4 2 1 5 2 8 6 6 7 7 8 5 4 4 5 6 5 6 14 19 22 24 19 17 17 18 21 23 25 26 25 25 26 26 25 25 25 26 26 25 25 24 23 22 21 23 24 21 19 17 17 17 15 14 14 13 13 11 11 12 9 10 12 11 11 10 11 10 10 11 11 9 6 4 4 5 5 3 2 4 5 4 3 4 8 9 8 7 7 8 7 8
6 5 4 1 1 2 2 1 4 4 5 3 7 8 6 7 5 4 5 5 5 2 4 13 17 18 18 16 15 16 17 20 22 24 25 25 25 26 26 27 27 26 26 27 26 26 26 25 24 22 23 23 21 19 18 18 18 17 17 15 14 14 12 11 12 10 10 12 12 10 10 12 11 9 12 12 10 8 7 6 6 6 5 4 5 5 4 3 4 7 8 8 7 7 7 9 10
4 6 4 3 1 2 1 2 2 3 2 4 8 5 2 3 3 3 6 7 6 4 9 12 15 15 14 13 14 15 15 18 22 23 24 25 24 25 27 28 29 29 28 28 28 27 27 26 26 24 23 22 21 20 20 20 21 21 20 17 16 16 15 13 13 13 11 12 12 11 10 11 11 10 11 13 12 10 9 9 8 8 7 7 8 6 7 6 6 7 8 8 7 7 8 9 11
3 4 3 4 4 2 2 2 1 2 2 4 7 5 1 1 1 3 6 7 6 8 11 10 13 13 12 11 12 15 16 19 24 23 21 22 23 26 27 28 30 31 30 30 30 28 27 28 28 27 25 24 22 21 21 22 23 24 22 20 19 19 18 16 15 15 14 14 13 12 11 12 12 11 11 12 14 14 12 12 12 12 12 11 10 10 10 9 8 8 8 8 8 9 8 8 8
3 3 2 2 3 1 0 3 2 0 1 2 7 4 0 3 1 6 6 8 8 11 12 10 11 11 10 11 10 12 15 20 25 23 22 24 26 27 27 29 31 31 32 33 32 30 29 30 29 28 27 26 25 24 23 23 24 24 23 21 21 21 20 18 18 18 17 16 14 13 12 13 14 14 13 12 13 16 16 16 16 16 15 14 13 12 11 10 8 7 8 8 8 9 9 8 8
2 3 2 1 1 1 3 3 2 2 1 4 6 3 2 2 6 8 7 9 8 11 12 10 11 9 9 10 9 9 14 19 22 23 25 27 27 28 28 28 30 31 32 33 32 31 30 31 31 29 28 27 27 26 25 25 25 24 23 23 22 22 22 21 20 20 20 18 16 16 15 14 16 16 15 14 13 15 17 17 18 17 16 15 14 13 11 11 9 8 9 9 9 10 10 11 11
3 4 1 1 2 3 5 4 3 3 1 3 5 1 5 8 11 8 7 9 9 10 10 10 9 9 8 9 8 8 13 17 20 25 28 27 27 29 30 29 29 30 30 31 32 32 30 30 31 30 29 28 28 27 27 27 26 25 24 23 23 23 23 23 22 21 22 19 18 19 18 16 17 18 17 16 14 14 16 17 17 16 16 16 15 14 13 12 12 11 12 12 12 12 12 13 13
2 3 2 1 1 4 5 4 6 5 2 1 4 2 5 8 9 7 8 9 11 10 9 9 8 8 8 8 9 9 11 17 23 27 29 29 29 30 30 31 30 29 29 31 33 32 31 31 31 32 31 30 29 29 29 28 28 27 26 24 23 24 24 24 23 23 23 21 20 21 21 19 18 20 19 17 17 16 16 16 15 15 15 15 15 14 14 14 13 13 14 14 14 14 14 14 15
2 3 3 2 3 4 4 2 7 6 1 2 5 2 5 7 7 6 9 9 10 10 8 8 8 8 8 8 9 8 9 17 24 26 28 29 31 30 31 32 31 31 30 30 32 32 32 32 32 33 32 32 32 31 30 29 29 28 27 25 24 24 24 24 24 24 24 22 21 22 23 22 19 20 20 19 19 18 17 16 15 14 14 15 15 15 15 15 15 14 15 16 16 16 16 16 16
2 3 3 3 5 3 3 2 5 5 3 2 3 2 4 5 5 3 7 8 10 9 8 8 8 8 8 7 8 8 8 11 16 22 27 29 30 32 32 33 33 34 32 30 31 33 34 34 34 34 34 33 33 33 32 30 29 28 27 25 24 24 24 24 24 24 24 23 22 22 22 22 21 20 21 21 21 20 19 17 16 15 15 15 16 17 17 16 15 15 15 16 16 15 16 16 17
2 3 3 4 5 4 1 3 4 4 5 5 4 2 5 6 3 3 6 8 9 8 8 9 8 8 7 7 7 8 8 9 11 18 26 29 30 32 33 34 34 35 35 33 31 32 34 35 35 35 34 34 34 34 33 32 30 28 27 26 25 25 25 24 23 25 26 24 24 23 22 22 21 20 21 22 22 21 20 18 17 16 16 16 17 17 18 17 16 15 15 15 15 15 15 16 16
4 4 4 4 2 4 5 3 4 6 5 5 5 3 9 8 4 4 5 5 8 9 9 8 9 9 7 7 7 8 9 10 12 20 28 30 31 32 33 34 34 34 36 37 34 32 33 35 36 36 35 34 35 34 33 33 31 29 27 26 26 26 26 25 24 26 27 26 26 25 24 23 22 20 20 22 23 23 21 20 19 18 17 17 18 18 18 18 17 16 16 15 16 16 16 16 16
6 6 6 5 4 3 4 3 3 6 5 5 7 7 10 9 5 5 7 5 6 7 7 7 8 8 8 8 8 9 10 10 14 22 28 30 32 33 34 34 34 34 35 37 37 35 34 35 36 36 36 35 35 35 34 34 33 32 30 28 28 29 29 28 27 27 27 28 28 28 27 25 24 23 21 21 24 24 23 22 20 19 19 19 20 20 19 18 18 17 16 16 17 17 17 17 17
4 4 5 7 6 3 3 2 4 1 4 5 8 7 8 8 7 7 7 5 6 7 7 8 7 8 9 10 10 11 11 11 16 23 27 30 32 33 33 34 34 33 34 36 37 36 36 36 37 37 37 36 36 36 36 36 36 35 33 32 32 31 31 31 30 30 29 29 30 30 30 28 27 26 23 23 25 25 25 24 23 21 21 21 21 20 19 18 18 17 16 16 17 18 19 19 18
2 4 4 6 6 4 3 2 3 2 2 4 4 5 8 8 8 7 5 6 8 10 10 10 10 9 8 10 12 12 9 8 11 18 24 29 30 31 32 33 35 35 35 36 37 38 36 36 38 38 38 38 39 38 37 37 38 38 37 37 35 33 32 32 33 32 31 30 30 31 31 31 30 29 27 26 26 25 26 26 25 24 23 23 23 22 20 20 19 19 18 18 18 19 20 20 19
2 3 4 4 4 3 2 3 3 3 1 3 2 2 8 9 8 6 6 8 9 11 12 12 11 10 9 10 11 10 8 8 9 12 19 27 29 31 32 33 35 37 36 37 38 38 37 36 38 38 38 39 39 39 39 39 39 38 37 36 36 33 31 32 32 31 30 30 30 30 31 32 33 32 30 29 28 27 26 27 27 26 25 24 24 24 23 22 22 22 22 21 20 19 20 20 21
3 3 4 3 3 4 1 3 2 2 1 2 2 2 6 7 6 6 7 9 8 8 11 10 9 11 12 11 10 10 11 11 10 10 14 21 26 29 32 33 35 35 35 37 38 39 39 39 39 39 39 39 39 39 40 40 38 37 36 34 34 32 28 27 28 28 29 30 30 29 30 32 32 32 30 29 30 29 27 27 28 28 28 27 26 26 26 25 25 25 24 24 22 20 20 20 21
3 3 5 2 2 3 3 2 1 3 3 1 3 4 6 5 5 8 7 8 7 6 8 9 9 10 10 9 9 11 12 12 12 11 11 16 23 29 33 35 35 35 37 39 40 40 40 41 41 41 41 41 40 40 40 39 37 35 34 31 29 29 26 23 24 28 30 30 31 31 32 32 32 32 31 31 31 30 29 28 29 30 30 28 28 28 28 27 27 27 27 26 24 22 21 21 21
5 4 6 6 5 4 4 5 4 3 4 3 2 1 6 5 4 8 6 5 7 6 8 11 11 10 9 8 9 11 11 11 11 12 12 16 22 28 31 34 35 36 39 40 41 42 41 42 42 41 41 42 42 42 41 40 38 36 35 33 31 30 29 29 31 33 33 33 33 33 33 32 32 32 33 33 32 31 32 31 30 31 30 28 29 30 30 29 28 28 28 26 26 24 22 22 22
4 5 4 6 8 7 7 6 3 2 3 3 3 4 5 6 4 8 5 5 9 8 8 11 11 10 9 10 11 10 10 10 10 11 12 15 21 24 27 33 36 38 40 40 40 41 41 41 41 41 41 42 42 42 42 42 40 38 37 37 36 35 34 36 38 36 34 34 33 32 32 31 30 30 32 33 34 34 33 31 30 30 29 28 28 30 31 30 28 28 27 27 25 23 23 24 24
4 4 2 5 8 7 7 6 4 3 3 4 4 3 3 5 6 8 5 5 9 8 8 10 9 10 11 11 11 10 11 11 10 11 11 13 19 24 28 33 38 39 40 39 40 40 40 40 40 41 41 41 42 41 42 42 42 41 40 39 38 38 38 37 37 34 33 32 30 30 30 30 29 28 29 31 32 33 33 32 31 31 30 29 28 30 30 28 26 26 26 26 24 24 25 26 25
4 4 4 6 7 7 6 6 4 1 1 3 5 1 2 5 6 6 4 3 7 8 8 10 10 11 11 12 12 11 11 10 10 12 12 14 21 28 32 35 38 39 38 39 41 41 40 40 39 40 40 40 40 40 41 41 42 41 40 39 38 39 38 36 33 32 31 29 29 30 29 29 28 28 28 27 28 30 31 31 31 31 31 30 30 30 30 28 26 26 26 25 26 27 27 26 25
3 3 5 5 4 5 5 5 4 3 1 5 6 2 2 5 6 4 3 2 6 8 7 8 10 11 11 11 12 12 10 9 10 10 11 15 22 29 31 32 34 37 37 38 39 38 39 39 38 38 39 40 40 40 41 41 41 40 40 40 39 38 37 34 31 29 30 29 29 29 29 29 29 28 27 26 27 29 30 32 32 32 32 32 32 32 30 28 27 27 26 27 28 28 26 25 26
5 5 6 7 5 5 4 3 4 3 2 6 7 5 4 3 5 4 3 5 6 7 6 7 8 9 11 11 10 10 9 8 9 8 9 12 17 22 25 27 30 33 34 34 35 35 36 37 37 38 39 39 40 40 41 41 42 42 41 40 39 37 35 34 31 29 30 30 31 31 30 30 29 28 27 26 27 28 29 30 31 32 32 32 33 33 31 30 30 29 27 28 28 26 25 27 29
7 5 5 4 3 4 4 4 3 2 4 6 5 3 5 4 5 5 5 6 6 6 6 7 8 9 9 8 8 8 7 8 8 7 7 8 9 12 17 22 25 27 29 31 33 34 35 36 37 37 37 38 39 40 41 41 42 43 42 40 39 37 35 34 34 32 31 32 32 31 30 29 29 28 27 26 27 27 27 26 27 28 29 30 31 31 30 30 29 28 27 26 26 26 27 28 28
5 5 6 5 1 2 1 2 1 3 5 4 3 1 3 5 7 8 8 10 10 8 7 7 8 7 6 5 5 4 4 6 6 6 6 7 7 9 13 17 20 23 27 30 32 33 34 35 36 37 37 38 39 39 40 40 41 42 42 40 39 38 36 36 35 35 33 33 32 31 31 30 29 29 28 28 27 27 27 26 27 28 28 30 31 30 30 29 27 27 26 26 26 27 27 27 27
4 6 5 4 3 3 2 3 1 3 4 3 2 2 2 3 5 10 12 14 14 8 6 8 8 7 7 6 4 4 4 5 5 5 6 5 6 9 13 15 17 20 24 27 29 31 32 33 34 35 35 35 36 37 38 39 40 40 40 39 38 37 36 36 36 36 35 33 33 33 33 33 32 31 30 29 27 26 27 27 27 26 25 24 24 24 24 24 24 25 25 26 26 26 26 25 25
4 5 6 5 5 4 4 4 2 4 3 3 3 1 3 2 4 9 10 11 12 8 6 6 6 6 5 4 4 4 4 5 5 5 6 7 9 13 16 17 19 21 22 25 27 28 29 31 32 33 33 33 34 35 37 38 39 39 38 38 37 36 36 37 36 35 34 33 33 33 33 32 32 31 29 27 25 25 25 27 27 25 23 21 20 19 19 20 21 22 23 24 24 23 22 22 21
3 3 5 5 5 4 3 3 4 4 1 1 2 2 4 4 5 9 7 7 8 8 7 5 5 4 1 2 4 5 5 6 6 6 7 8 11 15 17 18 20 21 22 24 25 26 28 29 30 32 32 33 34 35 36 36 37 36 36 36 36 36 36 36 36 35 34 33 32 31 30 30 29 27 26 25 23 23 23 24 25 25 22 21 20 19 19 20 21 22 23 23 23 21 20 20 20
2 3 4 5 4 6 4 1 0 3 1 3 2 3 4 3 5 8 7 7 8 8 7 5 6 5 4 4 6 6 6 6 6 7 7 7 9 13 16 18 20 21 22 24 25 27 28 29 30 31 31 31 32 33 34 34 34 34 34 35 35 36 36 35 34 33 32 30 30 29 28 27 27 25 24 23 21 21 21 22 23 24 23 22 21 20 21 21 22 23 23 23 23 22 21 21 20
4 4 6 3 2 4 3 1 1 2 3 4 1 4 4 2 2 6 6 6 9 9 7 6 6 5 6 8 7 7 7 7 7 7 7 7 9 13 16 18 19 21 23 24 26 26 27 28 29 30 31 31 31 32 32 32 32 32 33 34 35 35 34 33 32 31 29 27 27 28 28 27 26 24 23 22 20 20 20 20 21 21 21 21 21 21 21 22 23 23 24 24 23 22 22 22 22
4 3 3 3 3 3 3 3 3 2 4 4 2 4 3 3 4 5 7 7 8 9 7 5 6 6 6 8 8 7 7 6 6 6 6 6 9 13 16 17 18 19 21 22 23 24 25 26 27 28 29 29 29 29 30 31 31 32 32 33 33 33 32 31 30 28 27 26 25 26 27 27 25 23 23 23 22 22 21 20 21 21 21 22 22 23 23 23 24 24 24 24 23 22 23 23 23
2 1 1 2 3 5 4 4 4 3 3 4 3 3 3 5 6 6 9 10 8 7 6 5 7 6 6 7 7 7 7 6 6 7 7 6 8 13 15 16 17 18 19 19 20 21 23 23 24 25 26 26 27 28 29 30 30 31 31 31 31 31 31 30 27 26 26 27 26 25 25 26 24 23 23 23 23 23 22 22 22 22 22 23 23 23 23 23 23 24 25 24 24 23 24 25 24
2 2 4 2 1 2 2 2 3 4 4 4 2 3 5 6 5 7 10 9 7 6 4 5 6 5 6 6 6 6 6 7 7 6 6 5 7 10 13 14 15 15 16 17 18 19 20 21 22 23 24 25 27 27 28 29 29 28 29 29 29 29 29 29 27 25 25 26 27 26 25 25 24 23 22 22 22 22 22 21 22 22 22 22 23 22 22 22 23 24 24 24 24 24 25 26 25
4 5 7 6 3 4 4 4 1 2 3 4 3 4 7 6 4 6 7 6 6 6 5 5 5 6 6 5 5 6 6 6 7 6 5 5 6 10 12 13 13 13 14 15 17 18 19 20 21 22 23 25 26 27 27 27 27 27 27 27 27 26 27 27 27 26 25 26 26 26 25 25 24 23 22 22 22 22 22 22 22 22 22 22 22 21 21 21 22 23 24 24 24 25 26 26 25
Wind_Direction
314 313 314 335 349 339 327 75 58 318 92 299 273 137 260 220 126 112 91 65 62 42 46 98 70 63 91 109 120 103 55 333 200 158 180 137 146 157 159 152 147 142 137 133 131 122 118 116 116 122 121 115 116 120 113 104 103 110 112 105 99 98 97 96 97 94 94 92 86 88 89 90 88 88 88 87 87 86 87 86 83 83 82 83 84 82 82 83 84 84 84 85 84 86 90 89 86
319 317 333 343 335 347 301 100 79 323 48 329 283 161 193 106 86 118 127 104 101 136 90 79 66 71 104 122 124 92 42 1 92 115 104 124 136 147 153 152 146 144 139 135 133 125 121 117 114 119 122 118 121 121 112 104 105 112 113 108 103 100 99 99 98 96 94 93 90 90 92 90 89 88 86 84 85 86 87 85 82 82 82 82 84 84 84 85 87 87 87 88 87 91 93 88 86
327 326 359 357 326 74 352 41 94 357 41 272 276 249 162 97 100 121 127 115 120 118 84 64 59 71 102 99 59 61 73 7 76 86 109 129 133 142 150 150 144 144 140 137 135 128 121 117 116 120 124 121 119 115 109 104 104 112 116 112 108 102 101 101 98 98 96 95 93 91 90 88 89 88 85 84 84 86 89 89 87 85 85 84 84 86 87 88 89 90 91 92 96 97 94 90 88
334 350 360 11 16 33 46 45 149 152 266 231 245 287 86 117 124 113 114 115 114 92 72 57 54 36 79 93 81 68 109 90 92 99 124 139 141 146 149 145 143 143 141 140 136 129 121 118 119 127 129 124 119 114 115 110 105 110 119 117 109 104 102 102 100 98 98 97 95 92 91 89 88 87 86 85 85 87 89 91 89 86 86 87 87 88 89 90 91 93 96 98 100 99 95 93 90
330 25 348 18 65 18 83 85 160 142 226 204 172 239 127 131 124 113 116 105 97 88 94 91 85 38 64 90 126 101 123 115 128 126 124 142 145 146 145 141 143 143 143 143 139 131 123 121 120 130 134 129 123 118 118 113 110 109 120 123 114 110 106 104 101 98 101 101 97 93 92 93 90 89 89 88 87 88 87 87 87 86 87 88 89 88 89 91 93 95 99 102 101 99 98 95 92
348 40 4 25 137 178 98 270 282 249 241 181 143 169 151 141 125 117 109 83 58 74 92 86 110 98 68 41 54 115 165 137 142 141 131 143 147 145 143 141 145 147 148 146 142 133 126 124 120 128 135 134 126 122 120 114 114 112 121 128 122 117 109 105 102 100 102 102 99 95 94 95 93 94 95 94 92 90 89 88 89 91 92 91 92 91 91 91 94 96 100 105 101 101 101 97 94
3 19 36 44 331 8 113 222 255 255 263 165 142 158 155 148 132 117 113 92 28 42 71 86 124 101 78 119 61 52 175 153 146 144 140 144 148 145 144 144 149 154 153 149 146 136 130 127 123 126 133 133 126 124 124 118 115 115 122 129 128 120 110 107 105 102 102 102 100 97 96 96 97 98 99 99 98 95 92 92 92 93 93 91 90 90 90 92 94 96 103 107 104 103 104 100 97
0 12 77 85 358 359 124 233 251 211 281 63 139 152 150 151 139 121 127 128 99 116 79 103 115 94 37 82 74 9 120 144 144 143 144 143 147 147 148 149 153 157 155 153 149 140 134 131 127 126 132 132 126 127 129 124 118 117 124 130 131 124 115 111 109 105 103 102 100 98 98 97 99 99 99 100 100 98 95 97 97 94 93 92 91 91 91 92 94 96 106 111 108 106 104 103 100
82 94 38 90 140 298 267 268 262 226 291 77 127 144 147 150 139 127 127 125 137 142 161 156 102 105 100 69 89 34 107 137 141 143 147 144 148 149 149 153 158 159 157 156 153 144 138 134 131 127 131 132 130 131 131 128 123 120 126 130 132 127 121 117 114 111 107 106 103 100 100 97 98 101 100 100 99 98 96 96 98 98 97 96 94 94 93 94 95 96 108 116 111 106 103 103 102
74 81 83 107 129 261 280 282 254 240 236 145 138 151 152 149 134 125 126 140 153 143 178 146 84 112 128 92 107 104 127 139 140 146 152 147 147 149 150 157 163 159 155 157 156 148 141 138 134 130 131 132 133 133 130 131 128 124 128 130 133 134 129 124 121 117 112 111 108 104 107 105 101 102 102 101 98 96 96 95 97 99 98 99 96 94 95 95 97 97 109 120 114 106 103 104 105
53 337 99 117 99 206 247 256 244 233 233 149 142 167 161 145 129 123 130 141 146 137 172 101 95 123 110 99 172 144 141 141 144 151 155 150 147 149 151 158 164 159 155 159 159 152 145 142 139 133 131 131 135 133 130 134 133 129 130 131 134 139 138 132 127 123 117 115 115 113 120 120 108 105 104 104 103 99 99 99 99 99 100 101 100 99 99 99 100 99 108 121 117 108 106 106 103
86 291 82 124 189 208 216 191 217 225 267 163 155 194 165 140 128 135 137 136 133 127 163 131 135 141 101 102 185 144 145 146 150 155 158 153 147 149 152 156 159 160 158 160 162 158 151 147 143 139 134 131 132 133 133 136 140 136 132 133 134 139 144 140 133 130 126 122 121 118 125 129 119 114 114 112 112 107 104 103 101 102 104 105 104 104 103 103 104 102 109 120 119 112 109 105 99
127 181 98 168 200 195 203 164 192 175 257 224 182 202 144 138 146 152 138 131 136 129 181 182 141 115 96 116 136 145 153 155 155 159 161 152 146 149 151 153 155 159 158 162 166 163 158 154 149 144 139 136 135 135 136 138 143 141 135 137 141 143 146 144 141 139 133 125 119 117 126 133 128 125 124 120 118 116 115 111 106 104 105 106 107 105 104 105 106 105 112 119 118 115 111 104 101
157 165 119 201 241 198 195 122 177 159 225 235 203 195 124 134 159 152 131 128 148 155 184 177 123 102 96 136 141 166 163 160 159 163 160 150 148 150 150 152 155 159 157 163 170 169 165 161 156 150 146 144 143 141 141 144 145 142 136 137 143 147 148 146 142 140 136 129 123 121 130 138 136 131 129 125 119 120 124 121 113 110 111 111 110 108 108 108 108 109 115 121 120 118 114 108 105
178 168 103 170 277 264 202 173 184 170 220 218 194 171 113 45 101 125 131 137 172 208 130 96 112 116 155 164 184 193 165 160 161 162 160 155 153 152 152 152 156 160 160 165 173 176 172 169 165 158 156 153 151 150 147 149 148 146 142 139 138 141 143 143 138 138 139 136 134 130 134 144 144 139 137 131 125 124 125 128 122 119 119 116 114 113 113 111 111 111 117 125 123 121 117 113 109
140 103 70 168 248 259 232 196 170 161 231 208 184 139 103 13 41 98 165 142 131 316 72 70 13 101 159 179 179 170 161 159 161 164 166 164 157 155 155 153 157 161 166 171 173 179 179 176 174 168 165 162 159 157 154 152 152 151 150 148 142 138 138 139 138 139 141 139 140 138 139 147 150 147 144 138 130 125 124 130 134 131 126 121 118 117 116 116 115 110 119 129 127 124 119 118 116
61 82 69 267 230 226 233 211 178 173 204 186 191 155 124 30 17 67 328 104 107 69 62 42 22 65 149 176 157 155 155 157 160 166 171 167 157 156 156 156 160 162 170 178 177 179 182 182 180 179 174 171 169 164 162 157 155 156 155 156 150 146 143 142 143 141 139 136 134 135 143 151 153 154 150 145 139 131 124 125 138 140 134 129 125 122 123 124 124 118 122 131 133 127 123 123 121
61 100 140 233 219 204 226 219 198 164 160 175 192 176 140 142 150 131 45 77 95 85 67 53 51 48 91 128 141 146 150 155 161 168 173 169 159 158 157 159 166 168 171 179 182 181 184 185 183 185 182 179 177 174 171 162 160 160 159 159 156 155 152 149 147 142 137 128 121 118 130 146 153 156 157 156 150 142 130 123 132 138 135 130 125 127 131 128 126 126 128 135 140 134 128 129 129
123 142 163 221 212 215 276 261 205 156 154 169 175 174 153 159 159 136 110 117 114 94 64 69 81 69 96 121 134 142 149 154 164 170 175 174 164 164 163 162 169 174 176 179 183 185 188 188 186 188 186 184 184 181 179 171 165 164 163 162 160 160 157 155 149 142 136 127 120 116 125 142 150 152 160 166 161 155 143 133 135 135 136 132 133 136 141 132 120 128 136 142 146 142 136 136 139
181 139 173 237 227 245 326 344 280 187 146 150 166 168 162 177 162 134 133 141 143 136 150 123 120 128 123 130 137 143 149 156 167 173 179 179 169 170 170 168 173 178 181 180 181 186 191 193 191 191 188 189 190 184 183 182 173 169 168 166 165 163 158 154 149 143 137 128 128 138 148 157 163 162 168 168 165 170 162 155 154 154 152 152 157 152 163 160 134 139 148 151 150 147 145 141 147
194 152 192 240 234 256 300 327 312 218 146 150 162 139 153 188 157 143 137 137 182 190 181 163 152 151 144 146 145 148 153 158 170 178 181 181 174 175 176 175 178 182 183 181 182 185 190 196 195 193 191 193 196 190 186 188 181 175 174 172 171 168 162 155 150 147 140 137 142 158 169 176 190 190 192 179 171 184 185 182 178 180 186 183 180 164 180 181 159 159 161 158 152 148 146 139 142
224 227 207 237 210 186 279 305 318 278 138 138 149 144 159 162 135 164 153 159 209 201 187 168 156 156 155 156 154 154 158 164 174 181 183 183 181 180 180 180 182 186 186 185 186 187 191 196 195 194 195 195 199 198 193 192 187 182 180 179 179 176 172 162 159 156 148 151 156 166 182 196 208 207 206 195 184 187 191 194 191 188 198 198 190 172 166 174 173 169 162 159 153 154 152 140 147
222 273 207 233 217 175 279 314 311 289 133 139 157 160 140 126 164 187 163 191 220 206 190 166 160 162 158 156 158 162 167 172 178 183 185 184 185 184 183 184 184 187 190 191 190 189 193 194 195 198 198 197 199 201 198 195 191 188 185 182 181 182 181 170 171 172 161 166 170 177 198 212 212 209 207 200 190 178 159 172 176 167 152 175 185 165 138 139 168 162 156 160 156 160 166 170 191
204 271 225 231 161 163 224 267 311 31 131 163 149 137 139 142 169 181 170 212 223 238 205 166 159 158 155 158 165 170 174 178 182 186 188 187 188 188 188 188 187 188 190 193 194 193 195 195 196 200 199 199 200 199 197 195 193 192 190 186 182 183 185 177 179 186 174 180 185 184 208 219 208 199 198 199 192 185 180 166 175 181 155 154 187 175 152 144 168 164 163 174 173 173 179 194 207
205 249 228 198 82 201 213 130 333 26 109 136 115 124 163 166 152 171 199 206 208 201 142 153 151 151 158 166 171 173 176 181 184 187 190 193 192 189 190 191 190 191 192 194 196 196 197 198 199 200 199 198 200 200 198 196 194 194 195 192 189 185 185 182 185 196 188 191 197 192 211 214 200 190 189 194 194 197 200 187 195 203 187 187 201 202 199 208 205 184 182 190 193 199 206 214 217
232 246 211 152 142 258 267 114 351 350 53 98 109 108 169 193 156 187 201 193 203 118 111 139 146 154 167 170 173 174 177 183 187 190 192 195 195 192 192 193 193 195 196 195 197 198 198 199 200 199 198 198 200 202 201 199 195 197 198 195 196 192 189 187 190 202 204 203 208 207 212 205 197 200 194 190 194 201 205 201 205 206 205 216 216 218 227 238 240 219 207 203 210 220 223 227 227
285 263 178 143 152 199 282 155 192 331 10 102 120 125 179 284 178 219 212 182 173 115 115 138 147 162 171 171 177 176 179 185 188 190 191 195 198 197 196 194 194 197 198 197 198 199 198 200 201 201 201 201 201 203 204 201 198 200 201 199 200 199 196 194 193 202 209 210 215 218 212 200 199 209 209 201 198 200 204 206 209 211 217 224 222 226 237 241 239 230 223 219 223 227 226 226 227
323 316 81 104 132 172 260 139 191 193 41 131 114 112 311 9 224 224 208 176 158 129 136 149 154 169 173 173 180 179 186 188 186 188 191 196 199 200 200 196 195 196 198 198 198 198 200 201 202 203 205 205 204 205 206 204 203 204 205 206 205 204 202 201 199 202 208 211 218 223 216 207 204 208 215 218 211 206 207 210 213 217 222 225 224 230 238 241 238 228 225 228 227 228 232 233 237
251 258 300 298 60 295 213 157 196 154 165 189 123 88 275 226 223 224 190 173 160 138 151 160 162 172 173 176 179 183 192 189 187 191 196 198 198 200 203 200 196 196 198 198 196 196 200 201 201 203 207 208 207 208 208 207 208 208 210 211 209 208 206 208 207 205 210 216 221 224 224 220 210 208 216 222 222 216 214 216 219 223 226 228 229 232 235 237 236 226 223 230 229 226 231 235 241
210 221 212 250 2 287 226 177 161 142 208 217 145 179 256 231 229 222 183 168 154 147 164 170 171 174 175 178 179 188 193 189 190 197 199 199 198 200 203 204 201 199 198 196 195 196 199 201 201 203 205 207 208 209 210 209 211 212 213 215 214 213 210 213 215 212 214 219 224 225 226 226 214 209 214 220 226 225 222 224 227 229 229 228 230 231 231 232 233 227 223 227 230 230 232 235 239
204 210 205 167 153 266 256 175 150 152 244 110 126 204 252 251 248 218 184 168 156 164 178 178 180 179 177 180 180 190 194 193 196 199 200 199 200 201 202 204 203 202 199 196 198 199 201 203 202 203 205 207 207 209 211 211 213 215 216 217 217 217 215 217 220 219 216 217 222 223 224 226 218 211 212 217 225 228 228 230 232 232 227 227 229 231 232 232 232 230 228 229 230 233 233 235 239
184 193 237 216 170 261 307 193 166 157 202 118 127 212 260 269 270 214 179 168 161 171 186 187 189 186 182 183 183 190 195 197 200 201 201 201 202 203 203 205 204 203 202 201 202 202 203 205 205 204 204 206 206 208 211 211 214 217 218 219 219 220 219 220 223 221 218 217 221 222 223 225 223 217 215 218 224 229 230 233 236 232 226 227 230 232 233 234 235 233 234 234 234 235 235 237 241
221 171 206 212 182 233 316 244 209 155 136 183 177 207 251 275 288 193 168 171 167 171 189 194 196 196 189 185 185 188 191 198 203 203 201 202 203 204 204 205 206 206 206 205 204 204 204 205 207 206 206 207 207 208 210 211 213 216 218 219 222 223 222 222 223 222 219 218 220 221 221 223 224 223 220 219 222 227 230 233 235 230 227 229 230 233 235 237 239 239 239 240 240 240 239 239 242
223 165 196 228 184 181 212 261 242 150 142 198 202 217 253 278 297 196 175 169 167 178 195 197 199 201 196 192 190 190 191 197 203 201 200 201 203 205 206 207 208 209 208 208 207 206 206 206 207 208 209 209 209 209 211 212 213 216 219 221 224 226 225 224 223 221 220 219 221 221 220 220 222 223 222 221 223 226 229 232 232 229 227 229 230 233 236 238 241 242 244 244 244 245 244 245 244
170 166 189 250 213 177 192 229 216 160 159 197 182 231 261 269 274 238 228 186 177 192 197 198 200 198 196 195 196 198 198 205 206 199 198 201 203 204 206 206 208 209 208 209 210 209 208 207 208 208 209 210 210 210 211 211 213 216 218 221 223 225 226 225 222 220 219 220 223 224 224 223 222 223 225 225 226 227 230 231 230 228 228 228 229 231 234 237 239 241 242 241 242 244 247 248 247
164 175 180 201 213 220 212 234 244 165 159 205 193 211 243 247 241 236 249 227 202 215 209 203 204 199 198 197 201 204 203 213 211 202 199 200 202 204 204 205 205 206 207 208 209 209 209 207 207 207 208 209 209 209 209 209 210 213 215 217 219 221 224 224 223 221 220 220 221 223 225 224 224 225 227 231 231 230 231 233 231 229 229 229 228 229 234 238 239 241 241 240 240 241 242 243 243
141 161 188 199 198 240 257 258 298 144 152 218 214 219 251 252 241 232 225 214 223 237 230 221 211 200 200 200 204 205 208 215 209 205 204 202 204 203 204 204 204 205 205 205 205 207 208 208 206 206 207 207 207 207 207 207 207 209 212 215 217 220 222 222 222 222 223 223 222 224 225 225 226 226 229 236 234 231 233 234 232 229 229 231 232 236 240 240 239 240 240 239 240 242 243 243 241
120 137 177 215 204 217 266 264 305 349 157 243 240 235 262 258 248 242 195 180 217 222 217 222 218 208 204 202 207 208 210 213 203 204 206 204 204 203 203 203 202 203 204 204 204 206 207 208 207 208 208 207 207 208 208 207 209 209 211 214 217 220 221 221 220 222 224 226 225 226 227 227 228 228 233 238 234 231 233 233 232 231 231 234 236 238 240 239 238 238 237 236 239 243 247 247 243
215 110 140 214 210 182 306 320 331 15 164 266 334 239 256 260 256 248 189 189 221 217 208 215 212 209 210 206 208 207 206 208 201 202 205 204 203 202 201 202 202 204 204 204 206 207 206 207 209 209 208 207 208 210 210 211 212 212 213 215 215 217 222 223 224 226 228 229 229 228 229 229 229 231 234 235 232 231 233 233 233 232 233 235 235 236 237 237 237 237 238 239 241 244 248 250 246
204 113 122 224 205 151 229 290 320 14 120 179 50 341 272 273 279 269 219 210 229 224 215 220 212 209 214 207 201 199 200 205 204 203 204 202 201 201 201 202 203 203 203 204 205 206 206 207 209 209 208 208 209 210 212 213 213 213 216 218 216 217 222 225 228 231 232 231 230 229 230 229 230 231 230 230 231 232 234 237 238 236 235 236 237 238 239 239 240 241 242 241 240 242 248 253 251
234 156 143 197 196 156 174 176 126 13 359 111 84 359 301 262 257 263 244 223 234 229 217 230 232 226 225 217 207 202 201 201 199 203 203 198 199 201 202 203 203 202 204 205 205 206 206 207 209 209 209 209 209 209 210 211 211 212 213 214 216 217 220 221 221 225 226 226 228 230 230 229 229 229 228 228 230 234 239 241 242 240 238 239 240 242 243 245 246 247 245 244 243 244 252 259 256
251 221 175 176 168 140 121 120 93 46 337 293 114 37 293 287 260 253 256 249 250 232 209 223 227 227 228 223 220 215 210 206 201 203 200 198 200 201 202 203 202 204 206 206 206 206 207 207 208 209 209 210 211 211 210 210 209 209 207 206 208 211 213 215 216 219 220 222 227 230 230 229 229 229 229 231 233 237 241 243 244 244 242 243 245 245 245 246 247 248 248 249 248 250 258 260 254
221 243 199 163 140 124 128 134 106 111 252 287 96 151 257 315 307 260 257 255 258 246 222 228 226 222 220 218 221 217 214 214 211 211 204 200 200 199 202 204 204 206 208 208 207 207 207 207 208 208 210 211 212 213 212 211 210 209 208 209 209 209 211 216 218 221 223 225 228 229 229 228 230 232 231 233 235 238 239 242 245 245 244 248 248 246 244 244 248 251 253 252 251 256 259 252 249
208 243 149 137 133 138 147 137 126 182 226 319 21 123 218 300 280 266 261 243 267 266 240 239 232 226 225 225 227 217 214 213 210 213 210 204 201 200 203 205 206 208 209 208 208 208 208 208 208 209 210 211 212 212 213 212 211 211 211 212 214 214 216 219 219 221 225 228 228 228 228 228 230 232 232 233 235 237 239 241 243 243 246 250 249 246 245 245 249 253 253 252 254 260 257 250 250
232 228 141 144 145 147 142 123 119 116 101 301 312 101 183 273 273 293 310 268 286 280 246 240 231 226 227 228 228 221 217 214 209 212 210 207 204 204 206 207 209 210 209 209 209 210 209 209 210 210 211 212 212 212 212 212 212 212 213 213 214 217 219 221 221 220 221 224 226 227 228 230 231 231 231 235 236 235 236 236 237 240 245 249 248 247 246 245 249 253 253 253 255 257 254 250 253
216 165 99 82 85 94 103 114 113 77 84 243 260 204 178 278 284 304 324 276 273 267 250 241 232 229 229 229 228 222 218 214 214 217 215 213 210 210 210 209 211 211 210 211 210 210 210 210 210 211 212 213 213 213 213 212 212 212 212 212 212 214 216 219 221 221 220 221 224 227 227 229 232 231 232 236 235 233 234 236 239 242 245 248 249 248 246 245 251 257 257 255 254 253 252 254 259
133 101 69 55 40 40 50 62 95 103 267 250 240 202 171 274 281 251 230 228 233 244 260 264 253 246 237 235 233 224 219 217 217 220 224 222 219 217 215 213 213 213 211 211 210 210 210 210 211 212 214 214 214 214 214 213 213 212 213 212 212 212 213 214 217 220 220 220 223 226 227 228 231 232 233 234 234 235 238 240 241 243 244 245 245 245 245 248 256 258 254 251 251 253 258 260 259
114 97 95 85 18 14 22 3 47 157 252 259 251 196 165 224 264 244 243 256 245 224 236 253 254 257 255 252 247 234 225 222 221 222 219 213 210 211 210 211 214 212 210 209 209 209 210 211 211 211 213 214 215 215 215 215 214 215 215 215 215 215 215 215 217 218 219 219 221 223 225 226 227 230 231 232 234 236 237 237 237 236 235 236 238 240 246 252 256 252 248 250 254 258 259 257 255
111 114 121 118 66 30 26 300 283 221 248 256 267 188 182 232 250 255 268 277 269 235 216 235 241 243 249 244 230 211 193 195 204 209 205 199 195 193 195 200 205 205 207 208 208 209 209 210 210 210 212 213 214 215 215 215 215 216 217 217 218 219 219 220 220 221 221 220 220 220 220 221 222 225 229 231 233 233 233 235 236 236 236 236 238 242 246 249 248 247 249 253 254 255 254 253 253
135 140 136 137 136 102 193 242 262 259 261 266 277 258 250 276 259 247 246 253 264 256 226 237 240 234 227 215 201 185 177 186 194 198 200 204 208 204 199 197 197 200 203 205 207 208 208 208 208 210 212 212 213 214 214 215 216 217 217 218 219 220 221 223 223 224 224 224 224 223 223 224 224 226 230 234 234 232 233 234 238 243 243 241 241 243 243 242 242 244 247 250 251 251 251 252 252
168 161 137 148 163 147 184 201 199 233 264 296 297 251 195 201 252 243 231 245 270 278 251 228 221 227 221 210 210 202 211 220 212 210 212 212 212 211 211 208 205 204 204 204 206 207 206 207 208 209 210 210 211 213 214 216 217 217 218 218 219 221 223 224 226 227 227 228 228 228 228 229 230 232 235 239 240 238 237 236 239 245 245 243 244 244 242 241 242 244 247 249 252 253 251 250 251
207 149 123 166 182 146 146 180 177 176 179 279 258 236 208 208 273 273 251 253 271 274 271 245 225 249 273 231 233 224 230 234 224 222 225 225 218 213 213 215 215 213 211 209 208 207 207 208 208 210 211 211 211 212 214 215 216 217 217 219 221 223 224 226 227 229 231 231 229 228 230 232 233 236 238 240 243 243 241 239 240 243 243 243 246 247 246 246 245 247 250 252 254 254 252 252 253
181 133 167 205 169 121 119 236 123 107 200 254 194 239 284 318 300 289 277 265 272 281 286 270 259 286 308 263 247 242 243 240 234 227 225 225 218 214 215 217 219 218 217 216 215 213 212 211 210 211 212 212 212 212 214 214 215 216 217 219 221 223 224 225 227 230 232 231 227 226 230 233 235 238 239 240 241 241 241 240 240 241 241 243 248 250 250 249 250 251 253 254 255 255 254 254 254
132 158 196 192 98 98 116 192 352 73 235 269 171 207 272 346 279 313 327 288 271 270 266 264 271 278 267 255 248 244 244 245 249 244 235 225 210 207 210 213 217 219 218 219 219 218 217 215 214 212 211 211 212 213 214 215 215 217 218 219 220 222 223 225 228 230 232 230 226 225 228 232 235 237 238 238 237 237 238 237 237 239 241 245 249 252 253 253 253 255 255 256 257 256 255 255 254
141 183 187 120 130 180 150 173 204 195 227 276 279 232 240 193 220 294 305 275 264 271 276 266 256 249 247 259 263 260 259 256 255 246 238 227 207 202 202 205 212 215 218 220 219 218 217 216 216 215 214 214 214 214 215 216 217 218 220 221 222 222 223 225 228 229 229 227 224 224 226 229 232 234 234 233 234 235 236 237 238 240 243 246 249 252 254 255 255 255 255 256 257 255 254 255 255
39 56 144 103 151 181 171 172 172 166 209 256 287 285 259 226 215 226 242 246 246 267 289 258 241 241 239 252 263 262 255 243 235 229 226 222 211 204 200 203 208 211 215 217 214 213 212 213 214 215 216 215 215 215 215 216 218 219 222 223 223 224 223 223 224 225 225 224 223 224 225 228 229 230 231 232 234 234 236 238 241 243 244 245 247 250 252 253 253 253 254 255 256 255 255 256 257
132 147 180 189 40 112 154 191 157 143 181 216 240 271 263 249 214 204 227 241 228 228 240 230 233 246 246 247 252 257 251 236 231 231 231 228 218 209 203 206 209 208 210 209 207 208 208 210 212 212 213 213 213 214 214 216 218 219 222 223 223 223 222 219 218 221 224 224 223 224 225 227 228 229 230 231 232 234 237 240 242 244 247 248 250 252 252 252 251 252 253 255 255 255 255 258 259
165 176 185 182 148 120 158 223 247 126 180 187 189 244 259 250 212 204 216 222 221 216 207 222 244 251 254 255 251 255 252 242 244 243 235 221 207 203 200 200 200 198 200 201 203 206 206 208 209 210 211 211 211 212 213 216 217 218 220 221 222 221 218 216 216 219 222 222 223 224 225 228 230 231 232 233 236 239 242 244 246 249 251 252 254 254 253 252 251 252 253 254 255 256 257 259 259